Weather observations for the past three days for
Fort Sill
Metric (Imperial)
Date Time (cdt) Wind (kph) Vis. (km) Weather Sky Cond. Temperature (ºC) Relative Humidity Wind Chill (°C) Heat Index (°C) Pressure Precipitation (cm)
Air Dwpt 6 hour altimeter (cm) sea level (mb) 1 hr 3 hr 6 hr
Max. Min.
03 17:55 SE 24 16.09 Fair CLR 37.6 17.5 31% 39 75.62 1006.8
03 16:55 SE 24 G 30 16.09 Fair CLR 38 18.4 32% 40 75.62 1006.7
03 15:55 SE 20 16.09 Fair CLR 37.9 18.8 33% 40 75.67 1007.4
03 14:55 SE 17 16.09 Fair CLR 37.1 18.6 34% 39 75.72 1008.1
03 13:55 S 11 16.09 A Few Clouds FEW210 37 19 35% 39 75.77 1008.7
03 12:55 S 19 16.09 Fair CLR 35.3 19.6 35.3 23.8 40% 38 75.84 1009.8
03 11:55 S 15 16.09 Fair CLR 32.9 20.4 48% 35 75.9 1010.5
03 10:55 SE 17 16.09 Fair CLR 30.6 20.8 56% 33 75.9 1010.5
03 09:55 S 15 16.09 Fair CLR 28.9 21.1 63% 31 75.95 1011.2
03 08:55 S 19 16.09 Fair CLR 26.9 21.4 72% 29 75.97 1011.6
03 07:55 SE 17 16.09 Fair CLR 24.7 20.4 77% 25 75.95 1011.3
03 06:55 SE 7 16.09 Fair CLR 23.9 19.8 30 23.9 78% 24 75.92 1010.9
03 05:55 SE 11 16.09 Fair CLR 24.9 19.9 74% 26 75.9 1010.5
03 04:55 S 11 16.09 Fair CLR 25.9 19.7 69% 27 75.92 1010.8
03 03:55 S 11 16.09 NULL NULL 26.5 19.6 66% 28 75.9 1010.4
03 02:55 SE 13 16.09 NULL NULL 27.8 19.3 60% 29 75.9 1010.4
03 01:55 SE 15 16.09 Fair CLR 28.9 19.2 56% 30 75.9 1010.4
03 00:55 SE 20 16.09 Fair CLR 30 19 37.7 30 52% 31 75.87 1010.0
02 23:55 SE 20 16.09 Fair CLR 31 17.6 45% 32 75.87 1010.0
02 22:55 SE 19 16.09 Fair CLR 31.8 17.3 42% 32 75.87 1010.1
02 21:55 SE 22 16.09 Fair CLR 32.6 16.4 38% 33 75.87 1010.1
02 20:55 SE 19 16.09 Fair CLR 34 16.3 35% 34 75.82 1009.5
02 19:55 SE 19 16.09 Fair CLR 35.7 15.9 31% 36 75.74 1008.5
02 18:55 SE 19 16.09 Fair CLR 37.8 16.1 39.5 36.9 28% 38 75.74 0.0
02 17:55 SE 15 16.09 Fair CLR 38.9 12.6 21% 38 75.74 1008.4
02 16:55 S 19 16.09 Fair CLR 39.3 14.3 23% 39 75.77 1008.8
02 15:55 SE 19 16.09 Fair CLR 39.5 15.1 24% 40 75.82 1009.4
02 14:55 S 17 16.09 Fair CLR 38.7 16.3 27% 39 75.9 1010.4
02 13:55 SE 7 16.09 Fair CLR 38 16.3 28% 39 75.95 1011.1
02 12:55 SE 15 16.09 Fair CLR 37.1 17.1 37.2 25 31% 38 76.05 1012.5
02 11:55 S 15 16.09 Fair CLR 35.9 18 35% 37 76.1 1013.2
02 10:55 S 15 16.09 Fair CLR 34.2 19 41% 36 76.12 1013.5
02 09:55 S 20 16.09 Fair CLR 31.6 19.2 48% 33 76.12 1013.5
02 08:55 S 17 16.09 Fair CLR 28.8 19.1 56% 30 76.12 1013.6
02 07:55 S 9 16.09 Fair CLR 26 19.1 66% 27 76.12 1013.7
02 05:55 SE 9 16.09 Fair CLR 24.9 17.8 65% 26 76.07 1012.9
02 04:55 SE 7 16.09 Fair CLR 24.9 17.3 63% 26 76.05 1012.5
02 03:55 S 7 16.09 Fair CLR 26 17.3 59% 27 76.05 1012.5
02 02:55 S 7 16.09 Fair CLR 27.1 17.3 55% 28 76.02 1012.1
02 01:55 S 7 16.09 Fair CLR 27.7 16.9 52% 28 76.05 1012.5
02 00:55 SE 11 16.09 Fair CLR 27.9 16.8 36.7 27.9 51% 28 76.05 1012.5
01 23:55 SE 7 16.09 Fair CLR 29 16.8 48% 29 76.02 1012.2
01 22:55 S 13 16.09 Fair CLR 30.2 16.2 43% 30 76.02 1012.2
01 21:55 SE 13 16.09 Fair CLR 31.8 15.7 38% 32 75.97 1011.5
01 20:55 SE 13 16.09 Fair CLR 32.9 15.4 35% 33 75.9 1010.5
01 19:55 SE 15 16.09 A Few Clouds FEW110 34.9 15.2 31% 35 75.87 1010.3
01 18:55 S 17 16.09 Fair CLR 36.8 12.9 39.6 35.7 24% 36 75.87 1010.2
01 17:55 S 19 16.09 Fair CLR 38.3 12.8 22% 37 75.9 1010.5
01 16:55 S 20 G 28 16.09 Mostly Cloudy BKN100 38.9 11.8 20% 38 75.9 1010.5
01 15:55 SW 15 16.09 Partly Cloudy SCT100 39.4 11.5 19% 38 75.95 1011.2
01 14:55 SE 11 16.09 Fair CLR 38 12.5 22% 37 76.02 1012.2
01 13:55 SE 11 16.09 Partly Cloudy SCT090 35.8 12.7 25% 35 76.07 1012.9
01 12:55 SW 11 16.09 A Few Clouds FEW080 FEW100 36.7 13.4 37.6 23.5 25% 36 76.15 1013.9
01 11:55 SW 13 G 28 16.09 Fair CLR 36 14.6 28% 36 76.17 1014.2
01 10:55 SW 11 16.09 Fair CLR 34 16.3 35% 34 76.2 1014.6
01 09:55 SW 13 16.09 Fair CLR 31.3 16.4 41% 31 76.23 1015.0
01 08:55 S 6 16.09 Fair CLR 27.9 15.8 48% 28 76.23 1015.0
01 07:55 Calm 16.09 Fair CLR 23.9 16.4 63% 25 76.2 1014.7
01 06:55 Calm 16.09 Fair CLR 24.5 15.1 27.6 23.7 56% 26 76.17 1014.3
01 05:55 Calm 16.09 Fair CLR 24 15.5 59% 25 76.15 1013.9
01 04:55 Calm 16.09 Fair CLR 24.5 14.8 55% 26 76.1 1013.2
01 03:55 SE 7 16.09 Fair CLR 25 15 54% 26 76.1 1013.2
01 02:55 Calm 16.09 Fair CLR 26.9 14.6 47% 27 76.1 1013.2
01 01:55 Calm 16.09 Fair CLR 26.9 14.6 47% 27 76.1 1013.2
01 00:55 S 9 16.09 Fair CLR 27.5 14.5 36.9 27.4 45% 28 76.07 1012.9
31 23:55 SE 9 16.09 Fair CLR 28.3 14.1 42% 28 76.05 1012.5
31 22:55 SE 11 16.09 Fair CLR 29.9 13.6 37% 29 76.05 1012.5
31 21:55 SE 15 16.09 Fair CLR 31.5 12.8 32% 30 76 1011.8
31 20:55 SE 11 16.09 Fair CLR 31.9 11.1 28% 30 75.92 1010.9
31 19:55 SE 11 16.09 Fair CLR 34.4 10.2 23% 33 75.9 1010.6
Date Time (cdt) Wind (kph) Vis. (km) Weather Sky Cond. Air Dwpt Max. Min. Relative Humidity Wind Chill (°C) Heat Index (°C) altimeter (cm) sea level (mb) 1 hr 3 hr 6 hr
6 hour
Temperature (ºC) Pressure Precipitation (cm)